Location: Gleizolles
(44.4833°N, 6.7667°E)
Time: 03:00:18
(UTC+00:00)

Envisat - Visible Passes

Search period start: 19 April 2024 00:00
Search period end: 29 April 2024 00:00
Orbit: 762 x 764 km, 98.3° (Epoch: 18 April)

Date Brightness Start Highest point End Pass type
(mag) Time Alt. Az. Time Alt. Az. Time Alt. Az.
19 Apr 3.0 02:56:54 10° NNE 03:02:01 80° ESE 03:06:13 15° S visible
20 Apr 4.3 02:19:53 10° NNE 02:24:34 37° E 02:28:33 14° SSE visible
20 Apr 4.0 03:59:03 10° N 04:03:25 30° WNW 04:07:46 10° SW visible
21 Apr 5.4 01:43:38 10° NE 01:46:55 17° E 01:50:11 10° SE visible
21 Apr 3.1 03:21:18 10° N 03:26:19 62° WNW 03:31:03 11° SSW visible
22 Apr 3.4 02:43:57 10° NNE 02:49:00 62° E 02:53:23 14° S visible
23 Apr 4.7 02:07:07 10° NE 02:11:29 28° E 02:15:42 11° SSE visible
23 Apr 3.7 03:45:51 10° N 03:50:31 38° WNW 03:55:09 10° SW visible
24 Apr 5.6 01:31:29 10° ENE 01:33:45 13° E 01:36:01 10° ESE visible
24 Apr 2.9 03:08:14 10° NNE 03:13:20 81° WNW 03:18:11 11° SSW visible
25 Apr 3.9 02:31:03 10° NNE 02:35:57 47° E 02:40:30 12° S visible
26 Apr 5.1 01:54:28 10° NE 01:58:21 22° E 02:02:14 10° SE visible
26 Apr 3.3 03:32:42 10° N 03:37:35 49° WNW 03:42:26 10° SW visible
27 Apr 3.1 02:55:13 10° NNE 03:00:20 79° ESE 03:05:18 11° S visible
28 Apr 4.3 02:18:12 10° NNE 02:22:52 36° E 02:27:30 10° SSE visible
28 Apr 4.0 03:57:20 10° N 04:01:44 30° WNW 04:06:06 10° SW visible
